Regional Weather Roundup
Issued by NWS

Home | Current Version | Previous Version | Graphics & Text | Print | Product List | Glossary On
Versions: 1 2 3 4 5 6 7 8 9 10 11 12 13 14 15 16 17 18 19 20 21 22 23 24 25 26 27 28 29 30 31 32 33 34 35 36 37 38 39 40 41 42 43 44 45 46 47 48 49 50
000
ASUS45 KPSR 251510
RWRAZ

ARIZONA REGIONAL HOURLY WEATHER ROUNDUP
NATIONAL WEATHER SERVICE PHOENIX AZ
800 AM MST SUN JAN 25 2015

NOTE: FAIR INDICATES FEW OR NO CLOUDS BELOW 12,000 FEET WITH NO
SIGNIFICANT WEATHER AND/OR OBSTRUCTIONS TO VISIBILITY.

AZZ001>003-036-251600-
NORTHWEST ARIZONA

CITY           SKY/WX    TMP DP  RH WIND       PRES   REMARKS
BULLHEAD CITY  SUNNY     61  34  36 N29G35    30.17R
KINGMAN        SUNNY     41  21  44 E6        30.26R
$$

AZZ004>008-015-016-018-251600-
NORTH CENTRAL ARIZONA

CITY           SKY/WX    TMP DP  RH WIND       PRES   REMARKS
GRAND CANYON   MOSUNNY   36  22  56 NE12      30.35R WCI  28
PRESCOTT       MOSUNNY   27  16  63 SW3       30.27R
FLAGSTAFF      SUNNY     38  18  44 E14       30.32R WCI  30
PAYSON         SUNNY     43  16  33 NE7       30.26S
$$

AZZ009>014-017-251600-
NORTHEAST ARIZONA

CITY           SKY/WX    TMP DP  RH WIND       PRES   REMARKS
WINSLOW        PTSUNNY   23  18  81 SE5       30.35R WCI  17
SAINT JOHNS    PTSUNNY   22  17  81 S3        30.33R
WINDOW ROCK    SUNNY     20  14  77 CALM      30.31S
SHOW LOW       MOSUNNY   23  16  74 CALM      30.36R
$$

AZZ023-251600-
GREATER PHOENIX AREA

CITY           SKY/WX    TMP DP  RH WIND       PRES   REMARKS
PHOENIX        MOSUNNY   53  23  31 E6        30.10R
BUCKEYE          N/A     41  18  38 N8        30.11S
GLENDALE       MOSUNNY   43  27  52 CALM      30.12R
LUKE AFB       NOT AVBL
DEER VALLEY    SUNNY     48  19  31 CALM      30.11R
SCOTTSDALE     SUNNY     47  23  38 CALM      30.12R
MESA-FALCON    MOSUNNY   50  19  29 VRB6      30.11R
MESA-GATEWAY   MOSUNNY   41  23  48 SE5       30.14R
CHANDLER       MOSUNNY   41  27  56 NE9       30.12R
$$

AZZ027-028-251600-
SOUTHWEST MARICOPA COUNTY AND PINAL COUNTY

CITY           SKY/WX    TMP DP  RH WIND       PRES   REMARKS
CASA GRANDE    PTSUNNY   52  18  25 NE8       30.11R
GILA BEND      FAIR      51  17  25 NE10      30.08R
$$

AZZ503-504-507>509-251600-
SOUTHEAST ARIZONA

CITY           SKY/WX    TMP DP  RH WIND       PRES   REMARKS
TUCSON         PTSUNNY   50  14  23 E7        30.14R
DAVIS-MONTHAN  PTSUNNY   51  11  20 SE13      30.11S
RYAN FIELD       N/A    N/A N/A N/A SE7       30.13R
NOGALES        CLOUDY    45  16  31 S3        30.13S
SIERRA VISTA   CLOUDY    43  17  35 SE5       30.17R
DOUGLAS        CLOUDY    33  17  51 N6        30.19R WCI  28
SAFFORD        PTSUNNY   33  20  58 E3        30.22R
$$

AZZ020-021-025-026-031-251600-
SOUTHWEST ARIZONA

CITY           SKY/WX    TMP DP  RH WIND       PRES   REMARKS
YUMA           MOSUNNY   54  24  31 NE10      30.07R
$$

CAZ031-033-041-043-047-048-061-251600-
SOUTHERN CALIFORNIA

CITY           SKY/WX    TMP DP  RH WIND       PRES   REMARKS
DOWNTOWN L.A.  MOSUNNY   49  35  58 CALM      30.02S
L.A. AIRPORT   SUNNY     49  34  56 E3        30.03S
SAN DIEGO      PTSUNNY   56  38  50 CALM      30.04R
BURBANK        SUNNY     52  25  35 VRB3      30.04R
ONTARIO        MOSUNNY   62  21  20 SW7       30.04R
RIVERSIDE      SUNNY     53  24  32 NE7       30.07R
PALM SPRINGS   SUNNY     62  20  19 SW8       30.13R
EL CENTRO NAS  SUNNY     42  20  41 W7        30.09R
IMPERIAL       SUNNY     44  24  45 W6        30.09R
BLYTHE         SUNNY     49  26  41 E10       30.12R
NEEDLES        SUNNY     60  32  34 N13       30.17R
$$

NVZ020-UTZ003-251600-
SOUTHERN NEVADA-UTAH

CITY           SKY/WX    TMP DP  RH WIND       PRES   REMARKS
LAS VEGAS      SUNNY     46  25  43 S7        30.25R
SALT LAKE CITY PTSUNNY   31  27  85 S3        30.46S
$$

NMZ009-TXZ055-251600-
NEW MEXICO-WEST TEXAS

CITY           SKY/WX    TMP DP  RH WIND       PRES   REMARKS
ALBUQUERQUE    MOSUNNY   30  20  66 NE5       30.30R WCI  25
EL PASO        PTSUNNY   35  26  69 N9        30.23R WCI  28
$$


........................KEY........................
SKY/WX - SKY CONDITION/WEATHER
TMP    - TEMPERATURE IN FAHRENHEIT
DP     - DEW POINT IN FAHRENHEIT
RH     - RELATIVE HUMIDITY IN PERCENT
WIND   - DIRECTION AND SPEED IN MILES PER HOUR (MPH)
VRB    - VARIABLE WIND DIRECTION
PRES   - MEAN SEA LEVEL PRESSURE IN INCHES OF MERCURY
         F - FALLING PRESSURE   R - RISING PRESSURE
         S - STEADY PRESSURE
VSB    - VISIBILITY IN MILES
HX     - HEAT INDEX IN FAHRENHEIT
WCI    - WIND CHILL INDEX IN FAHRENHEIT
TC     - TEMPERATURE IN CELSIUS WHICH IS ALSO KNOWN AS
         TEMPERATURE IN CENTIGRADE
AFB    - AIR FORCE BASE
         LUKE AFB IS LUKE AIR FORCE BASE
         DAVIS-MONTHAN IS DAVIS-MONTHAN AIR FORCE BASE
NAS    - NAVAL AIR STATION
         EL CENTRO NAS IS EL CENTRO NAVAL AIR STATION
N/A    - NOT AVAILABLE



USA.gov is the U.S. government's official web portal to all federal, state and local government web resources and services.